CW7427 Weather Reports


Display with metric or nautical units.
time (UTC)temp
F
wind
direction
speed
MPH
gust
MPH
rain 1hr
in
rain 24hr
in
rain mn
in
humidity
%
barometer
mb
20260904045259 74 91 0.0 2.0 0.00 0.00 0.00 41 1015.0
20260904044800 73 91 0.0 5.0 0.00 0.00 0.00 42 1015.1
20260904044258 73 91 0.0 5.0 0.00 0.00 0.00 39 1015.2
20260904043745 74 203 0.0 2.0 0.00 0.00 0.00 40 1015.2
20260904043229 73 203 0.0 2.0 0.00 0.00 0.00 40 1015.3
20260904042718 74 203 0.0 2.0 0.00 0.00 0.00 40 1015.4
20260904042211 74 203 0.0 1.0 0.00 0.00 0.00 40 1015.4
20260904041939 73 203 0.0 2.0 0.00 0.00 0.00 43 1015.5
20260904041152 73 203 0.0 2.0 0.00 0.00 0.00 39 1015.5
20260904040645 74 203 0.0 2.0 0.00 0.00 0.00 41 1015.6
20260904040404 74 203 0.0 2.0 0.00 0.00 0.00 42 1015.8
20260904035630 73 203 0.0 1.0 0.00 0.00 0.00 40 1015.9
20260904035119 74 203 0.0 2.0 0.00 0.00 0.00 40 1015.9
20260904034610 74 201 0.0 2.0 0.00 0.00 0.00 41 1016.1
20260904034107 74 201 0.0 2.0 0.00 0.00 0.00 43 1016.1
20260904034044 73 201 0.0 2.0 0.00 0.00 0.00 44 1016.2
20260904033047 73 201 0.0 2.0 0.00 0.00 0.00 42 1016.2
20260904032537 72 201 0.0 2.0 0.00 0.00 0.00 40 1016.3
20260904032256 73 200 0.0 4.0 0.00 0.00 0.00 40 1016.4
20260904031525 73 199 0.0 4.0 0.00 0.00 0.00 42 1016.4
20260904031019 73 219 0.0 2.0 0.00 0.00 0.00 39 1016.6
20260904030509 73 219 0.0 2.0 0.00 0.00 0.00 42 1016.7
20260904030004 73 219 0.0 2.0 0.00 0.00 0.00 43 1016.7
20260904025458 73 210 0.0 1.0 0.00 0.00 0.00 41 1016.8
20260904024957 74 210 0.0 4.0 0.00 0.00 0.00 44 1016.9
20260904024657 73 210 0.0 4.0 0.00 0.00 0.00 41 1017.0
20260904023935 72 348 0.0 2.0 0.00 0.00 0.00 42 1016.9
20260904023430 71 348 0.0 4.0 0.00 0.00 0.00 43 1017.0
20260904023140 71 355 0.0 4.0 0.00 0.00 0.00 46 1017.1
20260904022408 72 355 1.0 4.0 0.00 0.00 0.00 45 1017.3
20260904021907 73 355 0.0 2.0 0.00 0.00 0.00 44 1017.5
20260904021400 72 31 0.0 2.0 0.00 0.00 0.00 46 1017.5
20260904020847 72 30 0.0 2.0 0.00 0.00 0.00 44 1017.6
20260904020337 71 31 0.0 3.0 0.00 0.00 0.00 45 1017.7
20260904020056 71 31 0.0 4.0 0.00 0.00 0.00 44 1017.9
20260904015321 72 31 0.0 4.0 0.00 0.00 0.00 45 1018.0
20260904014811 72 301 0.0 3.0 0.00 0.00 0.00 47 1018.1
20260904014301 72 300 0.0 3.0 0.00 0.00 0.00 46 1018.2
20260904014021 71 298 0.0 4.0 0.00 0.00 0.00 47 1018.3
20260904013249 71 311 0.0 4.0 0.00 0.00 0.00 48 1018.5
20260904012740 71 5 0.0 2.0 0.00 0.00 0.00 48 1018.5
20260904012229 71 9 0.0 1.0 0.00 0.00 0.00 50 1018.6
20260904011728 70 9 0.0 1.0 0.00 0.00 0.00 48 1018.8
20260904011212 71 9 0.0 1.0 0.00 0.00 0.00 49 1019.0
20260904010933 71 10 0.0 1.0 0.00 0.00 0.00 49 1019.1
20260904010157 70 10 0.0 5.0 0.00 0.00 0.00 50 1019.1
20260904005652 69 10 0.0 5.0 0.00 0.00 0.00 50 1019.1
20260904005143 70 294 0.0 4.0 0.00 0.00 0.00 47 1019.1
20260904004642 68 293 0.0 2.0 0.00 0.00 0.00 51 1019.1
20260904004125 69 292 0.0 2.0 0.00 0.00 0.00 51 1019.2
20260904003620 69 295 0.0 2.0 0.00 0.00 0.00 51 1019.2
20260904003108 69 296 0.0 2.0 0.00 0.00 0.00 50 1019.3
20260904002603 69 294 0.0 3.0 0.00 0.00 0.00 54 1019.3
20260904002052 69 24 0.0 2.0 0.00 0.00 0.00 52 1019.3
20260904001815 68 25 0.0 0.0 0.00 0.00 0.00 51 1019.4
20260904001037 68 25 0.0 1.0 0.00 0.00 0.00 55 1019.5
20260904000739 68 25 0.0 1.0 0.00 0.00 0.00 56 1019.5
20260904000625 67 25 0.0 1.0 0.00 0.00 0.00 51 1019.5
20260903235511 67 25 0.0 1.0 0.00 0.00 0.00 55 1019.7
20260903235005 67 26 0.0 1.0 0.00 0.00 0.00 54 1019.8
20260903234500 67 26 0.0 1.0 0.00 0.00 0.00 57 1019.8
20260903234000 67 26 0.0 2.0 0.00 0.00 0.00 55 1019.9
20260903233716 66 26 0.0 2.0 0.00 0.00 0.00 58 1019.9
20260903232949 66 27 0.0 1.0 0.00 0.00 0.00 55 1020.0
20260903232441 66 27 0.0 2.0 0.00 0.00 0.00 56 1020.0
20260903231928 66 27 0.0 2.0 0.00 0.00 0.00 58 1020.1
20260903231640 65 309 0.0 5.0 0.00 0.00 0.00 59 1020.1
20260903230919 65 309 0.0 5.0 0.00 0.00 0.00 60 1020.2
20260903230419 65 325 0.0 2.0 0.00 0.00 0.00 58 1020.2
20260903225918 65 327 0.0 2.0 0.00 0.00 0.00 58 1020.2
20260903225417 64 327 0.0 2.0 0.00 0.00 0.00 60 1020.2
20260903224917 64 327 0.0 2.0 0.00 0.00 0.00 58 1020.2
20260903224911 64 323 0.0 0.0 0.00 0.00 0.00 60 1020.3
20260903223858 63 323 0.0 0.0 0.00 0.00 0.00 61 1020.2
20260903223609 63 322 0.0 0.0 0.00 0.00 0.00 61 1020.2
20260903222853 62 323 0.0 0.0 0.00 0.00 0.00 63 1020.3
20260903222340 62 323 0.0 0.0 0.00 0.00 0.00 62 1020.3
20260903222059 62 323 0.0 0.0 0.00 0.00 0.00 63 1020.0
20260903221308 62 323 0.0 0.0 0.00 0.00 0.00 64 1020.1
20260903220756 61 322 0.0 0.0 0.00 0.00 0.00 65 1020.1
20260903220240 60 323 0.0 0.0 0.00 0.00 0.00 68 1020.2
20260903215945 60 322 0.0 0.0 0.00 0.00 0.00 67 1020.0
20260903215659 59 323 0.0 0.0 0.00 0.00 0.00 68 1020.0
20260903214701 59 322 0.0 0.0 0.00 0.00 0.00 70 1019.9
20260903214158 59 322 0.0 0.0 0.00 0.00 0.00 70 1019.9
20260903213657 58 322 0.0 0.0 0.00 0.00 0.00 70 1020.0
20260903213151 58 322 0.0 0.0 0.00 0.00 0.00 72 1019.8
20260903212913 57 322 0.0 1.0 0.00 0.00 0.00 73 1019.7
20260903212130 57 322 0.0 1.0 0.00 0.00 0.00 74 1019.6
20260903211629 56 322 0.0 0.0 0.00 0.00 0.00 75 1019.6
20260903211120 55 322 0.0 0.0 0.00 0.00 0.00 76 1019.6
20260903210605 55 322 0.0 0.0 0.00 0.00 0.00 77 1019.5
20260903210320 54 322 0.0 0.0 0.00 0.00 0.00 78 1019.4
20260903205817 54 322 0.0 0.0 0.00 0.00 0.00 78 1019.4
20260903205043 53 322 0.0 0.0 0.00 0.00 0.00 79 1019.2
20260903204527 53 322 0.0 0.0 0.00 0.00 0.00 80 1019.2
20260903204245 52 322 0.0 0.0 0.00 0.00 0.00 81 1019.2
20260903203506 51 322 0.0 0.0 0.00 0.00 0.00 81 1019.1
20260903203002 51 322 0.0 0.0 0.00 0.00 0.00 81 1019.0
20260903202458 51 322 0.0 0.0 0.00 0.00 0.00 81 1019.1
20260903202358 51 322 0.0 0.0 0.00 0.00 0.00 80 1018.9
20260903202022 51 322 0.0 0.0 0.00 0.00 0.00 80 1019.0
20260903200929 51 322 0.0 0.0 0.00 0.00 0.00 80 1018.9
20260903200419 51 322 0.0 0.0 0.00 0.00 0.00 79 1018.9
20260903195858 51 322 0.0 0.0 0.00 0.00 0.00 79 1018.8
20260903195622 51 322 0.0 0.0 0.00 0.00 0.00 79 1018.7
20260903194854 51 322 0.0 0.0 0.00 0.00 0.00 79 1018.6
20260903194342 52 322 0.0 0.0 0.00 0.00 0.00 78 1018.7
20260903193842 52 322 0.0 0.0 0.00 0.00 0.00 78 1018.4
20260903193336 52 322 0.0 0.0 0.00 0.00 0.00 77 1018.3
20260903193050 52 322 0.0 0.0 0.00 0.00 0.00 77 1018.5
20260903192306 52 322 0.0 0.0 0.00 0.00 0.00 77 1018.3
20260903191800 52 322 0.0 0.0 0.00 0.00 0.00 76 1018.2
20260903191515 52 322 0.0 0.0 0.00 0.00 0.00 76 1018.2
20260903190738 53 322 0.0 0.0 0.00 0.00 0.00 75 1018.2
20260903190207 53 322 0.0 0.0 0.00 0.00 0.00 75 1018.0
20260903185702 53 322 0.0 0.0 0.00 0.00 0.00 75 1018.0
20260903185150 53 322 0.0 0.0 0.00 0.00 0.00 75 1018.1
20260903184636 53 322 0.0 0.0 0.00 0.00 0.00 74 1017.9
20260903184131 53 322 0.0 0.0 0.00 0.00 0.00 74 1017.9
20260903183556 53 322 0.0 0.0 0.00 0.00 0.00 74 1017.9
20260903183323 53 322 0.0 0.0 0.00 0.00 0.00 74 1017.8
20260903182550 53 322 0.0 0.0 0.00 0.00 0.00 74 1017.8
20260903182051 53 322 0.0 0.0 0.00 0.00 0.00 74 1017.8
20260903181546 53 322 0.0 0.0 0.00 0.00 0.00 75 1017.6
20260903181022 53 322 0.0 0.0 0.00 0.00 0.00 76 1017.5
20260903180514 53 322 0.0 0.0 0.00 0.00 0.00 76 1017.4
20260903175958 53 322 0.0 0.0 0.00 0.00 0.00 77 1017.4
20260903175433 53 322 0.0 0.0 0.00 0.00 0.00 77 1017.3
20260903174926 52 322 0.0 0.0 0.00 0.00 0.00 78 1017.1
20260903174412 51 322 0.0 0.0 0.00 0.00 0.00 78 1017.1
20260903173902 52 322 0.0 0.0 0.00 0.00 0.00 77 1017.1
20260903173400 53 322 0.0 0.0 0.00 0.00 0.00 78 1017.3
20260903172840 52 322 0.0 0.0 0.00 0.00 0.00 79 1017.4
20260903172336 52 322 0.0 0.0 0.00 0.00 0.00 79 1017.3
20260903172036 52 322 0.0 0.0 0.00 0.00 0.00 78 1017.3
20260903171526 52 322 0.0 0.0 0.00 0.00 0.00 77 1017.4
20260903170805 52 322 0.0 0.0 0.00 0.00 0.00 77 1017.3
20260903170524 53 322 0.0 0.0 0.00 0.00 0.00 77 1017.5
20260903165731 53 322 0.0 0.0 0.00 0.00 0.00 77 1017.4
20260903165212 53 322 0.0 0.0 0.00 0.00 0.00 77 1017.4
20260903164701 53 322 0.0 0.0 0.00 0.00 0.00 76 1017.4
20260903164151 54 322 0.0 0.0 0.00 0.00 0.00 74 1017.6
20260903163651 54 322 0.0 0.0 0.00 0.00 0.00 73 1017.6
20260903163135 54 322 0.0 0.0 0.00 0.00 0.00 73 1017.6
20260903162634 55 322 0.0 0.0 0.00 0.00 0.00 72 1017.5
20260903162111 55 322 0.0 0.0 0.00 0.00 0.00 73 1017.5
20260903161609 54 322 0.0 0.0 0.00 0.00 0.00 74 1017.7
20260903161105 54 322 0.0 0.0 0.00 0.00 0.00 74 1017.7
20260903160604 55 322 0.0 0.0 0.00 0.00 0.00 73 1017.7
20260903160100 54 322 0.0 0.0 0.00 0.00 0.00 75 1017.7
20260903155813 54 322 0.0 0.0 0.00 0.00 0.00 74 1017.8
20260903155044 54 322 0.0 0.0 0.00 0.00 0.00 74 1017.8
20260903154539 54 322 0.0 0.0 0.00 0.00 0.00 74 1017.9
20260903154039 55 322 0.0 0.0 0.00 0.00 0.00 73 1017.9
20260903153527 55 322 0.0 0.0 0.00 0.00 0.00 73 1017.9
20260903153028 55 322 0.0 0.0 0.00 0.00 0.00 72 1017.9
20260903152515 56 322 0.0 0.0 0.00 0.00 0.00 72 1017.9
20260903152223 56 322 0.0 0.0 0.00 0.00 0.00 72 1017.9
20260903151713 55 322 0.0 0.0 0.00 0.00 0.00 72 1017.8
20260903151207 55 322 0.0 0.0 0.00 0.00 0.00 71 1017.9
20260903150444 56 322 0.0 0.0 0.00 0.00 0.00 71 1018.0
20260903150146 56 322 0.0 0.0 0.00 0.00 0.00 70 1017.9
20260903145411 56 322 0.0 0.0 0.00 0.00 0.00 70 1017.9
20260903144906 56 322 0.0 0.0 0.00 0.00 0.00 70 1018.0
20260903144355 56 322 0.0 0.0 0.00 0.00 0.00 70 1017.9
20260903144052 56 322 0.0 0.0 0.00 0.00 0.00 69 1017.9
20260903143309 57 322 0.0 0.0 0.00 0.00 0.00 69 1017.9
20260903142756 57 322 0.0 0.0 0.00 0.00 0.00 68 1017.8
20260903142219 57 322 0.0 0.0 0.00 0.00 0.00 68 1017.9
20260903141707 57 322 0.0 0.0 0.00 0.00 0.00 68 1017.9
20260903141205 57 322 0.0 0.0 0.00 0.00 0.00 68 1018.0
20260903140703 58 322 0.0 0.0 0.00 0.00 0.00 67 1018.0
20260903140156 58 322 0.0 0.0 0.00 0.00 0.00 67 1018.0
20260903135641 58 322 0.0 0.0 0.00 0.00 0.00 66 1017.9
20260903135107 58 322 0.0 0.0 0.00 0.00 0.00 67 1017.7
20260903134609 58 322 0.0 0.0 0.00 0.00 0.00 66 1017.7
20260903134031 59 322 0.0 0.0 0.00 0.00 0.00 65 1017.7
20260903133505 59 322 0.0 0.0 0.00 0.00 0.00 65 1017.6
20260903133005 59 322 0.0 0.0 0.00 0.00 0.00 65 1017.7
20260903132723 59 322 0.0 0.0 0.00 0.00 0.00 65 1017.6
20260903131947 59 322 0.0 0.0 0.00 0.00 0.00 65 1017.5
20260903131858 59 322 0.0 1.0 0.00 0.00 0.00 64 1017.5
20260903130905 59 322 0.0 1.0 0.00 0.00 0.00 65 1017.4
20260903130630 59 322 0.0 0.0 0.00 0.00 0.00 64 1017.1
20260903125844 60 322 0.0 0.0 0.00 0.00 0.00 64 1017.1
20260903125339 60 322 0.0 0.0 0.00 0.00 0.00 63 1016.9
20260903124832 60 322 0.0 0.0 0.00 0.00 0.00 62 1017.0
20260903124323 60 322 0.0 0.0 0.00 0.00 0.00 62 1017.0
20260903123816 60 322 0.0 0.0 0.00 0.00 0.00 62 1017.0
20260903123309 61 322 0.0 0.0 0.00 0.00 0.00 61 1017.1
20260903122803 61 322 0.0 0.0 0.00 0.00 0.00 61 1017.0
20260903122251 61 322 0.0 0.0 0.00 0.00 0.00 60 1016.9
20260903121707 61 322 0.0 0.0 0.00 0.00 0.00 60 1016.9
20260903121159 61 323 0.0 0.0 0.00 0.00 0.00 60 1016.7
20260903120922 61 323 0.0 0.0 0.00 0.00 0.00 60 1016.6
20260903120146 62 322 0.0 0.0 0.00 0.00 0.00 58 1016.5
20260903115625 62 322 0.0 0.0 0.00 0.00 0.00 58 1016.5
20260903115113 62 322 0.0 0.0 0.00 0.00 0.00 58 1016.5
20260903114827 62 322 0.0 0.0 0.00 0.00 0.00 59 1016.5
20260903114059 62 322 0.0 0.0 0.00 0.00 0.00 62 1016.4
20260903113553 62 323 0.0 0.0 0.00 0.00 0.00 64 1016.3
20260903113045 62 323 0.0 0.0 0.00 0.00 0.00 64 1016.2
20260903112547 62 322 0.0 0.0 0.00 0.00 0.00 63 1016.0
20260903112034 63 322 0.0 0.0 0.00 0.00 0.00 63 1015.9
20260903111533 63 322 0.0 0.0 0.00 0.00 0.00 63 1015.9
20260903110957 62 322 0.0 0.0 0.00 0.00 0.00 63 1015.9
20260903110445 63 322 0.0 0.0 0.00 0.00 0.00 62 1015.9
20260903105928 63 322 0.0 0.0 0.00 0.00 0.00 62 1015.9
20260903105409 63 322 0.0 0.0 0.00 0.00 0.00 61 1015.6
20260903104902 64 322 0.0 0.0 0.00 0.00 0.00 60 1015.5
20260903104359 64 322 0.0 0.0 0.00 0.00 0.00 60 1015.4
20260903103842 64 322 0.0 0.0 0.00 0.00 0.00 59 1015.3
20260903103340 64 322 0.0 0.0 0.00 0.00 0.00 59 1015.3
20260903102824 65 322 0.0 0.0 0.00 0.00 0.00 59 1015.2
20260903102320 65 322 0.0 0.0 0.00 0.00 0.00 59 1015.1
20260903101821 65 322 0.0 0.0 0.00 0.00 0.00 59 1015.0
20260903101310 65 323 0.0 0.0 0.00 0.00 0.00 59 1014.8
20260903100808 65 323 0.0 0.0 0.00 0.00 0.00 58 1014.7
20260903100525 65 323 0.0 0.0 0.00 0.00 0.00 58 1014.4
20260903095803 65 323 0.0 0.0 0.00 0.00 0.00 58 1014.3
20260903095306 65 323 0.0 1.0 0.00 0.00 0.00 57 1014.2
20260903094759 66 323 0.0 1.0 0.00 0.00 0.00 57 1014.2
20260903094521 66 323 0.0 0.0 0.00 0.00 0.00 56 1014.1
20260903093748 66 323 0.0 0.0 0.00 0.00 0.00 56 1014.0
20260903093233 67 323 0.0 1.0 0.00 0.00 0.00 55 1013.9
20260903092935 67 323 0.0 1.0 0.00 0.00 0.00 54 1013.8
20260903092203 67 323 0.0 5.0 0.00 0.00 0.00 54 1013.7
20260903091915 67 323 0.0 5.0 0.00 0.00 0.00 53 1013.5
20260903091129 68 319 0.0 0.0 0.00 0.00 0.00 53 1013.3
20260903090625 68 319 0.0 2.0 0.00 0.00 0.00 52 1013.2
20260903090124 68 319 0.0 3.0 0.00 0.00 0.00 52 1013.1
20260903085837 68 319 0.0 3.0 0.00 0.00 0.00 52 1013.1
20260903085344 68 321 0.0 1.0 0.00 0.00 0.00 51 1013.1
20260903084537 68 321 0.0 0.0 0.00 0.00 0.00 51 1013.1
20260903084006 69 321 0.0 0.0 0.00 0.00 0.00 50 1013.0
20260903083940 69 321 0.0 0.0 0.00 0.00 0.00 50 1012.9
20260903082956 69 321 0.0 0.0 0.00 0.00 0.00 49 1012.7
20260903082457 70 321 0.0 1.0 0.00 0.00 0.00 48 1012.6
20260903081928 70 321 0.0 1.0 0.00 0.00 0.00 47 1012.6
20260903081416 70 321 0.0 2.0 0.00 0.00 0.00 47 1012.4
20260903080907 71 321 0.0 2.0 0.00 0.00 0.00 47 1012.3
20260903080401 71 328 0.0 2.0 0.00 0.00 0.00 46 1012.2
20260903075854 71 321 0.0 0.0 0.00 0.00 0.00 45 1012.1
20260903075345 71 321 0.0 0.0 0.00 0.00 0.00 42 1012.1
20260903074835 72 321 0.0 0.0 0.00 0.00 0.00 39 1012.0
20260903074328 72 321 0.0 0.0 0.00 0.00 0.00 39 1011.9
20260903073818 72 322 0.0 0.0 0.00 0.00 0.00 39 1011.8
20260903073308 73 322 0.0 0.0 0.00 0.00 0.00 39 1011.6
20260903072803 73 322 0.0 1.0 0.00 0.00 0.00 39 1011.5
20260903072300 73 322 0.0 2.0 0.00 0.00 0.00 38 1011.4
20260903071757 74 322 0.0 2.0 0.00 0.00 0.00 37 1011.3
20260903071723 74 322 0.0 1.0 0.00 0.00 0.00 36 1011.1
20260903070735 74 322 0.0 4.0 0.00 0.00 0.00 36 1011.1
20260903070224 75 322 0.0 4.0 0.00 0.00 0.00 35 1010.9
20260903065711 75 323 0.0 2.0 0.00 0.00 0.00 36 1010.8
20260903065208 75 323 0.0 2.0 0.00 0.00 0.00 35 1010.8
20260903064659 75 327 0.0 4.0 0.00 0.00 0.00 34 1010.7
20260903064148 75 292 0.0 1.0 0.00 0.00 0.00 35 1010.6
20260903063638 76 294 0.0 2.0 0.00 0.00 0.00 34 1010.5
20260903063348 76 294 0.0 4.0 0.00 0.00 0.00 34 1010.4
20260903062618 76 284 0.0 5.0 0.00 0.00 0.00 33 1010.2
20260903062108 76 338 0.0 5.0 0.00 0.00 0.00 33 1010.1
20260903061816 76 355 0.0 4.0 0.00 0.00 0.00 33 1010.0
20260903061052 77 5 0.0 4.0 0.00 0.00 0.00 33 1010.1
20260903060547 77 320 0.0 4.0 0.00 0.00 0.00 33 1010.0
20260903060046 77 320 0.0 5.0 0.00 0.00 0.00 32 1010.2
20260903055530 78 313 1.0 6.0 0.00 0.00 0.00 31 1010.1
20260903055020 78 298 1.0 6.0 0.00 0.00 0.00 31 1010.1
20260903054957 78 319 1.0 6.0 0.00 0.00 0.00 32 1010.0
20260903054003 78 321 1.0 7.0 0.00 0.00 0.00 32 1009.9
20260903053458 78 304 1.0 7.0 0.00 0.00 0.00 32 1009.9
20260903052949 78 322 1.0 7.0 0.00 0.00 0.00 31 1009.9
20260903052438 78 319 1.0 7.0 0.00 0.00 0.00 32 1009.9
20260903051931 78 331 1.0 5.0 0.00 0.00 0.00 33 1009.7
20260903051426 78 239 1.0 5.0 0.00 0.00 0.00 33 1009.9
20260903050917 79 336 1.0 5.0 0.00 0.00 0.00 33 1009.7
20260903050406 79 170 1.0 5.0 0.00 0.00 0.00 34 1009.6
20260903045857 79 317 1.0 6.0 0.00 0.00 0.00 34 1009.6